EW4806 Weather Reports


Display with metric or nautical units.
time (UTC)temp
F
wind
direction
speed
MPH
gust
MPH
rain 1hr
in
rain 24hr
in
rain mn
in
humidity
%
barometer
mb
20260505013225 73 250 1.0 6.0 0.00 0.00 0.00 46 1010.0
20260505011725 74 276 1.0 7.0 0.00 0.00 0.00 45 1009.9
20260505010226 75 285 1.0 4.0 0.00 0.00 0.00 45 1009.7
20260505004722 76 245 1.0 13.0 0.00 0.00 0.00 43 1009.6
20260505003921 77 287 1.0 10.0 0.00 0.00 0.00 42 1009.2
20260505001721 77 210 1.0 8.0 0.00 0.01 0.00 42 1009.1
20260505000910 77 283 1.0 11.0 0.00 0.11 0.00 43 1009.1
20260504235413 77 279 1.0 8.0 0.00 0.12 0.00 43 1009.1
20260504233221 77 245 1.0 9.0 0.00 0.12 0.00 43 1009.3
20260504231720 77 268 1.0 8.0 0.00 0.12 0.00 42 1009.3
20260504230220 77 260 1.0 8.0 0.00 0.12 0.00 42 1009.5
20260504225414 78 262 1.0 12.0 0.00 0.12 0.00 41 1009.5
20260504223217 77 293 1.0 8.0 0.00 0.12 0.00 42 1009.8
20260504221719 76 252 1.0 10.0 0.00 0.12 0.00 43 1010.0
20260504220215 76 243 1.0 8.0 0.00 0.12 0.00 45 1010.2
20260504214715 75 300 1.0 10.0 0.00 0.12 0.00 45 1010.4
20260504213215 75 238 1.0 7.0 0.00 0.12 0.00 45 1010.6
20260504211716 74 227 0.0 9.0 0.00 0.12 0.00 47 1010.8
20260504210916 74 254 1.0 6.0 0.00 0.12 0.00 47 1011.1
20260504204713 73 274 1.0 10.0 0.00 0.12 0.00 48 1011.4
20260504203910 72 334 1.0 7.0 0.00 0.12 0.00 50 1011.6
20260504201710 71 339 1.0 8.0 0.00 0.12 0.00 49 1011.7
20260504200209 71 239 1.0 6.0 0.00 0.12 0.00 51 1011.9
20260504194710 70 291 0.0 8.0 0.00 0.12 0.00 53 1012.1
20260504193208 69 354 0.0 2.0 0.00 0.12 0.00 55 1012.3
20260504191709 68 305 0.0 8.0 0.00 0.12 0.00 54 1012.5
20260504190206 67 12 0.0 4.0 0.00 0.12 0.00 56 1012.6
20260504184705 66 296 0.0 4.0 0.00 0.12 0.00 59 1012.8
20260504183206 66 251 0.0 2.0 0.00 0.12 0.00 60 1013.0
20260504181705 65 266 0.0 3.0 0.00 0.12 0.00 59 1013.0
20260504180205 64 308 0.0 2.0 0.00 0.12 0.00 62 1013.1
20260504174705 63 335 0.0 2.0 0.00 0.12 0.00 63 1013.3
20260504173859 62 285 0.0 0.0 0.00 0.12 0.00 64 1013.3
20260504171703 62 262 0.0 2.0 0.00 0.12 0.00 65 1013.4
20260504170200 61 282 0.0 4.0 0.00 0.12 0.00 67 1013.6
20260504160149 57 260 0.0 0.0 0.00 0.12 0.00 75 1013.9
20260504150836 55 235 0.0 0.0 0.00 0.12 0.00 78 1013.9
20260504140142 53 235 0.0 0.0 0.00 0.12 0.00 84 1013.3
20260504130138 52 235 0.0 0.0 0.00 0.12 0.00 84 1012.7
20260504120133 53 235 0.0 0.0 0.00 0.12 0.00 82 1012.7
20260504110131 55 249 0.0 0.0 0.00 0.12 0.00 81 1012.6
20260504100128 55 171 0.0 0.0 0.00 0.12 0.00 86 1012.4
20260504090128 56 171 0.0 0.0 0.00 0.12 0.00 86 1012.1
20260504080127 57 172 0.0 0.0 0.00 0.12 0.00 86 1012.0
20260504070125 58 148 0.0 0.0 0.00 0.12 0.00 86 1011.8
20260504060122 58 145 0.0 0.0 0.00 0.12 0.12 85 1011.8
20260504044612 59 118 0.0 0.0 0.00 0.12 0.12 84 1011.1
20260504043110 59 130 0.0 0.0 0.00 0.12 0.12 84 1011.3
20260504041608 59 165 0.0 1.0 0.00 0.12 0.12 83 1011.1
20260504040108 59 152 0.0 0.0 0.00 0.12 0.12 83 1010.9
20260504034606 60 220 0.0 0.0 0.00 0.12 0.12 82 1010.9
20260504033104 60 218 0.0 0.0 0.00 0.12 0.12 82 1010.7
20260504032257 60 77 0.0 0.0 0.00 0.12 0.12 82 1010.5
20260504024601 61 113 0.0 0.0 0.00 0.12 0.12 81 1009.9
20260504023056 61 116 0.0 0.0 0.00 0.12 0.12 81 1010.0
20260504021556 61 117 0.0 0.0 0.00 0.12 0.12 80 1010.2
20260504020055 61 108 0.0 1.0 0.00 0.12 0.12 79 1010.4
20260504014555 61 127 0.0 1.0 0.00 0.12 0.12 81 1010.2